Tiempo cada hora Barlewice

Hoy, 6 Marzo, Sábado

Tiempo Temperatura Precipitaciones Viento Presión Humedad
00:00 -4°C° 0 mm 3 mps 765 mmHg 76%
01:00 -3°C° 0 mm 2 mps 765 mmHg 77%
02:00 -3°C° 0 mm 2 mps 765 mmHg 76%
03:00 -3°C° 0 mm 2 mps 765 mmHg 75%
04:00 -3°C° 0 mm 2 mps 765 mmHg 74%
05:00 -3°C° 0 mm 2 mps 765 mmHg 74%
06:00 -3°C° 0 mm 2 mps 765 mmHg 74%
07:00 -3°C° 0 mm 2 mps 765 mmHg 73%
08:00 -1°C° 0 mm 3 mps 765 mmHg 66%
09:00 0°C° 0 mm 3 mps 765 mmHg 58%
10:00 +1°C° 0 mm 4 mps 765 mmHg 50%
11:00 +1°C° 0 mm 5 mps 764 mmHg 48%
12:00 +2°C° 0 mm 5 mps 764 mmHg 46%
13:00 +3°C° 0 mm 5 mps 764 mmHg 44%
14:00 +2°C° 0 mm 5 mps 763 mmHg 46%
15:00 +2°C° 0 mm 5 mps 763 mmHg 48%
16:00 +2°C° 0 mm 5 mps 762 mmHg 50%
17:00 +1°C° 0 mm 5 mps 762 mmHg 61%
18:00 0°C° 0 mm 5 mps 761 mmHg 71%
19:00 -1°C° 0 mm 5 mps 761 mmHg 82%
20:00 -2°C° 0 mm 6 mps 760 mmHg 83%
21:00 -2°C° 0 mm 6 mps 760 mmHg 83%
22:00 -2°C° 0 mm 6 mps 759 mmHg 84%
23:00 -2°C° 0 mm 7 mps 759 mmHg 84%

Mañana, 7 Marzo, Domingo

Tiempo Temperatura Precipitaciones Viento Presión Humedad
00:00 -2°C° 0 mm 7 mps 758 mmHg 83%
01:00 -2°C° 0 mm 7 mps 758 mmHg 83%
02:00 -2°C° 0.1 mm 8 mps 757 mmHg 86%
03:00 -2°C° 0.1 mm 8 mps 757 mmHg 89%
04:00 -2°C° 0.1 mm 8 mps 756 mmHg 92%
05:00 -2°C° 0.2 mm 8 mps 756 mmHg 93%
06:00 -2°C° 0.2 mm 8 mps 756 mmHg 95%
07:00 -2°C° 0.2 mm 7 mps 756 mmHg 96%
08:00 -2°C° 0.4 mm 7 mps 756 mmHg 96%
09:00 -2°C° 0.4 mm 7 mps 756 mmHg 96%
10:00 -2°C° 0.4 mm 6 mps 755 mmHg 95%
11:00 -1°C° 0.4 mm 7 mps 755 mmHg 95%
12:00 -1°C° 0.4 mm 7 mps 755 mmHg 95%
13:00 -1°C° 0.4 mm 7 mps 755 mmHg 94%
14:00 -1°C° 0.5 mm 7 mps 755 mmHg 95%
15:00 -1°C° 0.5 mm 7 mps 755 mmHg 95%
16:00 -2°C° 0.5 mm 6 mps 754 mmHg 96%
17:00 -1°C° 0.6 mm 5 mps 754 mmHg 95%
18:00 -1°C° 0.6 mm 3 mps 754 mmHg 94%
19:00 -2°C° 0.6 mm 2 mps 755 mmHg 92%
20:00 -2°C° 0 mm 2 mps 755 mmHg 91%
21:00 -3°C° 0 mm 2 mps 755 mmHg 90%
22:00 -4°C° 0 mm 3 mps 755 mmHg 90%
23:00 -4°C° 0 mm 3 mps 755 mmHg 87%

Pasado mañana, 8 Marzo, Lunes

Tiempo Temperatura Precipitaciones Viento Presión Humedad
00:00 -3°C° 0 mm 2 mps 756 mmHg 85%
01:00 -3°C° 0 mm 2 mps 756 mmHg 83%
02:00 -4°C° 0 mm 3 mps 756 mmHg 82%
03:00 -4°C° 0 mm 3 mps 756 mmHg 81%
04:00 -4°C° 0 mm 3 mps 756 mmHg 80%
05:00 -4°C° 0.1 mm 3 mps 757 mmHg 81%
06:00 -4°C° 0.1 mm 3 mps 757 mmHg 81%
07:00 -2°C° 0.1 mm 3 mps 758 mmHg 81%
08:00 -2°C° 0.1 mm 4 mps 758 mmHg 76%
09:00 -2°C° 0.1 mm 4 mps 758 mmHg 71%
10:00 -1°C° 0.1 mm 5 mps 759 mmHg 65%
11:00 -1°C° 0.1 mm 5 mps 759 mmHg 64%
12:00 0°C° 0.1 mm 5 mps 759 mmHg 62%
13:00 0°C° 0.1 mm 5 mps 760 mmHg 61%
14:00 -1°C° 0.1 mm 5 mps 760 mmHg 63%
15:00 -1°C° 0.1 mm 5 mps 760 mmHg 64%
16:00 -1°C° 0.1 mm 5 mps 760 mmHg 66%
17:00 -2°C° 0 mm 4 mps 760 mmHg 71%
18:00 -2°C° 0 mm 3 mps 761 mmHg 76%
19:00 -3°C° 0 mm 2 mps 761 mmHg 80%
20:00 -4°C° 0 mm 2 mps 761 mmHg 81%
21:00 -4°C° 0 mm 2 mps 761 mmHg 81%
22:00 -2°C° 0 mm 1 mps 762 mmHg 81%
23:00 -2°C° 0 mm 1 mps 762 mmHg 81%

9 Marzo, Martes

Tiempo Temperatura Precipitaciones Viento Presión Humedad
00:00 -2°C° 0 mm 1 mps 762 mmHg 80%
01:00 -3°C° 0 mm 0 mps 762 mmHg 80%
02:00 -3°C° 0 mm 0 mps 762 mmHg 79%
03:00 -3°C° 0 mm 0 mps 762 mmHg 78%
04:00 -3°C° 0 mm 0 mps 762 mmHg 78%
05:00 -3°C° 0 mm 0 mps 762 mmHg 77%
06:00 -2°C° 0 mm 1 mps 762 mmHg 76%
07:00 -2°C° 0 mm 1 mps 762 mmHg 76%
08:00 -1°C° 0 mm 1 mps 762 mmHg 70%
09:00 -1°C° 0 mm 1 mps 762 mmHg 65%
10:00 0°C° 0 mm 1 mps 762 mmHg 60%
11:00 -1°C° 0 mm 2 mps 762 mmHg 56%
12:00 -1°C° 0 mm 2 mps 762 mmHg 52%
13:00 +1°C° 0 mm 2 mps 762 mmHg 48%
14:00 +1°C° 0 mm 2 mps 762 mmHg 49%
15:00 +1°C° 0 mm 2 mps 761 mmHg 50%
16:00 -1°C° 0 mm 2 mps 761 mmHg 51%
17:00 -1°C° 0 mm 2 mps 761 mmHg 56%
18:00 -2°C° 0 mm 2 mps 761 mmHg 61%
19:00 -3°C° 0 mm 2 mps 761 mmHg 66%
20:00 -3°C° 0 mm 2 mps 761 mmHg 67%
21:00 -4°C° 0 mm 2 mps 761 mmHg 68%
22:00 -4°C° 0 mm 2 mps 761 mmHg 69%
23:00 -4°C° 0 mm 2 mps 761 mmHg 70%

10 Marzo, Miércoles

Tiempo Temperatura Precipitaciones Viento Presión Humedad
00:00 -4°C° 0 mm 2 mps 761 mmHg 71%
01:00 -4°C° 0 mm 2 mps 761 mmHg 71%
02:00 -4°C° 0 mm 2 mps 760 mmHg 72%
03:00 -4°C° 0 mm 2 mps 760 mmHg 73%
04:00 -4°C° 0 mm 2 mps 760 mmHg 74%
05:00 -4°C° 0 mm 2 mps 760 mmHg 74%
06:00 -4°C° 0 mm 2 mps 760 mmHg 74%
07:00 -4°C° 0 mm 2 mps 760 mmHg 74%
08:00 -2°C° 0 mm 3 mps 760 mmHg 69%
09:00 -1°C° 0 mm 3 mps 760 mmHg 63%
10:00 +1°C° 0 mm 3 mps 760 mmHg 58%
11:00 +1°C° 0 mm 3 mps 760 mmHg 55%
12:00 +1°C° 0 mm 4 mps 760 mmHg 53%
13:00 +3°C° 0 mm 4 mps 759 mmHg 50%
14:00 +3°C° 0 mm 4 mps 759 mmHg 53%
15:00 +3°C° 0 mm 4 mps 758 mmHg 55%
16:00 +2°C° 0 mm 3 mps 758 mmHg 57%
17:00 0°C° 0 mm 4 mps 758 mmHg 63%
18:00 -1°C° 0 mm 4 mps 757 mmHg 68%
19:00 -2°C° 0 mm 4 mps 757 mmHg 74%
20:00 -2°C° 0 mm 4 mps 756 mmHg 80%
21:00 -1°C° 0 mm 4 mps 756 mmHg 86%
22:00 -1°C° 0 mm 5 mps 755 mmHg 92%
23:00 -1°C° 0 mm 5 mps 755 mmHg 92%

11 Marzo, Jueves

Tiempo Temperatura Precipitaciones Viento Presión Humedad
00:00 -2°C° 0 mm 6 mps 754 mmHg 91%
01:00 -2°C° 0 mm 6 mps 753 mmHg 91%
02:00 -1°C° 0 mm 6 mps 752 mmHg 89%
03:00 -1°C° 0 mm 6 mps 751 mmHg 88%
04:00 -1°C° 0 mm 6 mps 750 mmHg 86%
05:00 -1°C° 0.1 mm 7 mps 749 mmHg 87%
06:00 -1°C° 0.1 mm 7 mps 748 mmHg 88%
07:00 -1°C° 0.1 mm 8 mps 747 mmHg 89%
08:00 0°C° 0.3 mm 8 mps 746 mmHg 90%
09:00 0°C° 0.3 mm 8 mps 746 mmHg 91%
10:00 +1°C° 0.3 mm 8 mps 745 mmHg 92%
11:00 +2°C° 0.1 mm 8 mps 744 mmHg 91%
12:00 +3°C° 0.1 mm 9 mps 743 mmHg 90%
13:00 +3°C° 0.1 mm 9 mps 743 mmHg 90%
14:00 +5°C° 0.1 mm 8 mps 742 mmHg 87%
15:00 +6°C° 0.1 mm 8 mps 741 mmHg 85%
16:00 +7°C° 0.1 mm 8 mps 740 mmHg 83%
17:00 +6°C° 0.9 mm 8 mps 740 mmHg 82%
18:00 +6°C° 0.9 mm 8 mps 740 mmHg 82%
19:00 +6°C° 0.9 mm 7 mps 739 mmHg 82%
20:00 +5°C° 0 mm 7 mps 740 mmHg 80%
21:00 +4°C° 0 mm 7 mps 741 mmHg 79%
22:00 +3°C° 0 mm 7 mps 741 mmHg 77%
23:00 +3°C° 0 mm 7 mps 741 mmHg 79%
Mostrar más

Necesitamos Su Consentimiento

Meteoprog y nuestros Proveedores de Servicios pueden almacenar y acceder a sus datos personales como cookies, identificadores de dispositivo u otras tecnologías similares de su dispositivo y procesar dichos datos para personalizar contenido y anuncios, además de ofrecer funciones de redes sociales y analizar el tráfico.

  • Almacenar y/o acceder a información en su dispositivo

    Se puede almacenar o acceder a cookies, identificadores de dispositivo u otra información de su dispositivo para los fines anteriormente indicados.

  • Anuncios y contenido personalizados, medición de anuncios y contenido, percepciones del público, y desarrollo de productos

    Los anuncios y el contenido pueden personalizarse en base a su perfil. Se pueden añadir más datos para personalizar mejor los anuncios y contenidos. Se puede medir el rendimiento de los anuncios y contenidos. Se puede obtener la percepción sobre el público que ha visto los anuncios y contenidos. Dichos datos pueden usarse para desarrollar o mejorar la experiencia del usuario, sistemas y software.

Al hacer clic en ‘Estoy De Acuerdo’ usted permitirá el uso de las cookies, identificadores de dispositivo, balizas web u otras tecnologías similares indicadas. Su configuración puede cambiarse desde el navegador de su dispositivo.

Para ciertos fines, los intereses legítimos pueden ser considerados por encima del consentimiento. Puede leer más sobre ello en nuestra Política de Privacidad y Cookies.